Dalzell, IL

1:05 PM CST on February 27, 2017 (GMT -0600)
Illinois Valley Regional-Duncan

Weather History for KVYS - October, 2011

Change the Weather History Date:

Tuesday, October 25, 2011

  Actual Average Record
Temperature  
Mean Temperature 64 °F -  
Max Temperature 78 °F 60 °F 79 °F (1963)
Min Temperature 50 °F 39 °F 25 °F (1968)
Degree Days  
Heating Degree Days 1    
Growing Degree Days 14 (Base 50)    
Moisture  
Dew Point 46 °F    
Average Humidity 56    
Maximum Humidity 72    
Minimum Humidity 28    
Precipitation  
Precipitation 0.00 in - - ()
Sea Level Pressure  
Sea Level Pressure 29.90 in    
Wind  
Wind Speed 12 mph (South)    
Max Wind Speed 26 mph    
Max Gust Speed 34 mph    
Visibility 10 miles    
Events Rain , Thunderstorm    
Averages and records for this station are not official NWS values.
T = Trace of Precipitation, MM = Missing Value Source: NWS Daily Summary

Daily Weather History Graph

Daily Weather History Graph

Search for Another Location

Airport or City:

Trip Planner

Search our weather history database for the weather conditions in past years. The results will help you decide how hot, cold, wet, or windy it might be!

Date:

Astronomy

Oct. 25, 2011 Rise Set
Actual Time 7:19 AM CDT 6:01 PM CDT
Civil Twilight 6:51 AM CDT 6:29 PM CDT
Nautical Twilight 6:18 AM CDT 7:01 PM CDT
Astronomical Twilight 5:46 AM CDT 7:33 PM CDT
Moon 5:51 AM CDT (10/25) 5:02 PM CDT (10/25)
Length of Visible Light 11h 38m
Length of Day
10h 41m
Waning Crescent, 2% of the Moon is Illuminated
Oct 25
Waning Crescent
Oct 26
New
Nov 2
First Quarter
Nov 10
Full
Nov 18
Last Quarter

Hourly Weather History & Observations

Time (CDT) Temp. Dew Point Humidity Pressure Visibility Wind Dir Wind Speed Gust Speed Precip Events Conditions
12:15 AM 51.8 °F 41.0 °F 67% 30.08 in 10.0 mi South 10.4 mph - N/A   Clear
12:35 AM 53.6 °F 41.0 °F 62% 30.08 in 10.0 mi South 9.2 mph - N/A   Clear
12:55 AM 51.8 °F 41.0 °F 67% 30.08 in 10.0 mi South 9.2 mph - N/A   Clear
1:15 AM 51.8 °F 41.0 °F 67% 30.08 in 10.0 mi South 8.1 mph - N/A   Clear
1:35 AM 50.0 °F 41.0 °F 71% 30.08 in 10.0 mi South 9.2 mph - N/A   Clear
1:55 AM 50.0 °F 41.0 °F 71% 30.08 in 10.0 mi South 9.2 mph - N/A   Clear
2:15 AM 50.0 °F 41.0 °F 71% 30.07 in 10.0 mi South 10.4 mph - N/A   Clear
2:35 AM 51.8 °F 41.0 °F 67% 30.06 in 10.0 mi South 10.4 mph - N/A   Clear
2:55 AM 51.8 °F 41.0 °F 67% 30.05 in 10.0 mi SSE 10.4 mph - N/A   Clear
3:15 AM 51.8 °F 41.0 °F 67% 30.05 in 10.0 mi South 10.4 mph - N/A   Clear
3:35 AM 51.8 °F 41.0 °F 67% 30.04 in 10.0 mi SSE 9.2 mph - N/A   Clear
3:55 AM 51.8 °F 41.0 °F 67% 30.03 in 10.0 mi SSE 9.2 mph - N/A   Clear
4:15 AM 51.8 °F 41.0 °F 67% 30.02 in 10.0 mi SSE 9.2 mph - N/A   Clear
4:35 AM 51.8 °F 41.0 °F 67% 30.01 in 10.0 mi SSE 10.4 mph - N/A   Clear
4:55 AM 53.6 °F 41.0 °F 62% 30.00 in 10.0 mi SSE 11.5 mph - N/A   Clear
5:15 AM 53.6 °F 41.0 °F 62% 30.00 in 10.0 mi South 12.7 mph 16.1 mph N/A   Clear
5:35 AM 53.6 °F 41.0 °F 62% 29.99 in 10.0 mi South 15.0 mph - N/A   Clear
5:55 AM 53.6 °F 41.0 °F 62% 29.98 in 10.0 mi South 15.0 mph 20.7 mph N/A   Clear
6:15 AM 53.6 °F 41.0 °F 62% 29.98 in 10.0 mi South 13.8 mph - N/A   Clear
6:35 AM 53.6 °F 41.0 °F 62% 29.97 in 10.0 mi South 11.5 mph - N/A   Clear
6:55 AM 51.8 °F 42.8 °F 71% 29.96 in 10.0 mi South 11.5 mph - N/A   Clear
7:15 AM 53.6 °F 42.8 °F 67% 29.96 in 10.0 mi South 12.7 mph - N/A   Clear
7:35 AM 53.6 °F 44.6 °F 72% 29.95 in 10.0 mi South 12.7 mph - N/A   Clear
8:15 AM 57.2 °F 48.2 °F 72% 29.94 in 10.0 mi South 12.7 mph - N/A   Clear
8:35 AM 59.0 °F 48.2 °F 67% 29.93 in 10.0 mi South 16.1 mph 19.6 mph N/A   Clear
8:55 AM 60.8 °F 50.0 °F 68% 29.93 in 10.0 mi South 15.0 mph - N/A   Clear
9:15 AM 62.6 °F 50.0 °F 63% 29.93 in 10.0 mi South 18.4 mph 24.2 mph N/A   Clear
9:35 AM 62.6 °F 50.0 °F 63% 29.94 in 10.0 mi South 17.3 mph - N/A   Clear
9:55 AM 62.6 °F 50.0 °F 63% 29.94 in 10.0 mi SSW 12.7 mph - N/A   Mostly Cloudy
10:15 AM 62.6 °F 50.0 °F 63% 29.94 in 10.0 mi SSW 10.4 mph - N/A   Mostly Cloudy
10:35 AM 62.6 °F 51.8 °F 68% 29.93 in 10.0 mi South 5.8 mph - N/A   Mostly Cloudy
10:55 AM 62.6 °F 51.8 °F 68% 29.93 in 10.0 mi SSE 4.6 mph - N/A   Light Drizzle
11:15 AM 64.4 °F 53.6 °F 68% 29.91 in 10.0 mi ESE 8.1 mph - N/A   Mostly Cloudy
11:35 AM 64.4 °F 51.8 °F 64% 29.89 in 10.0 mi SE 10.4 mph - N/A   Mostly Cloudy
11:55 AM 66.2 °F 51.8 °F 60% 29.88 in 10.0 mi SSE 12.7 mph - N/A   Light Drizzle
12:15 PM 66.2 °F 51.8 °F 60% 29.86 in 7.0 mi SSE 12.7 mph - N/A Rain Light Rain
12:35 PM 66.2 °F 51.8 °F 60% 29.84 in 10.0 mi SSE 12.7 mph - N/A   Overcast
12:55 PM 68.0 °F 51.8 °F 56% 29.83 in 10.0 mi South 13.8 mph - N/A   Scattered Clouds
1:15 PM 71.6 °F 51.8 °F 50% 29.81 in 10.0 mi South 15.0 mph - N/A   Clear
1:35 PM 73.4 °F 48.2 °F 41% 29.79 in 10.0 mi South 15.0 mph - N/A   Clear
1:55 PM 75.2 °F 48.2 °F 38% 29.77 in 10.0 mi SSW 21.9 mph 26.5 mph N/A   Clear
2:15 PM 77.0 °F 44.6 °F 32% 29.75 in 10.0 mi South 23.0 mph 27.6 mph N/A   Clear
2:35 PM 78.8 °F 42.8 °F 28% 29.75 in 10.0 mi SSW 25.3 mph 34.5 mph N/A   Clear
2:55 PM 78.8 °F 42.8 °F 28% 29.74 in 10.0 mi SSW 26.5 mph 33.4 mph N/A   Clear
3:15 PM 77.0 °F 44.6 °F 32% 29.74 in 10.0 mi SW 16.1 mph 26.5 mph N/A   Clear
3:35 PM 78.8 °F 44.6 °F 30% 29.73 in 10.0 mi SW 21.9 mph 31.1 mph N/A   Clear
3:55 PM 78.8 °F 44.6 °F 30% 29.73 in 10.0 mi SW 17.3 mph 32.2 mph N/A   Clear
4:15 PM 77.0 °F 44.6 °F 32% 29.72 in 10.0 mi SW 16.1 mph 24.2 mph N/A   Clear
4:35 PM 75.2 °F 44.6 °F 34% 29.72 in 10.0 mi SSW 10.4 mph - N/A   Clear
4:55 PM 75.2 °F 44.6 °F 34% 29.73 in 10.0 mi SW 8.1 mph - N/A   Mostly Cloudy
5:15 PM 73.4 °F 46.4 °F 38% 29.72 in 10.0 mi South 5.8 mph - N/A   Overcast
5:35 PM 73.4 °F 46.4 °F 38% 29.72 in 10.0 mi South 4.6 mph - N/A   Overcast
5:55 PM 71.6 °F 46.4 °F 41% 29.72 in 10.0 mi SSW 8.1 mph - N/A   Mostly Cloudy
6:15 PM 73.4 °F 50.0 °F 44% 29.72 in 10.0 mi SW 10.4 mph - N/A   Scattered Clouds
6:35 PM 73.4 °F 51.8 °F 47% 29.72 in 10.0 mi SSW 10.4 mph - N/A   Mostly Cloudy
6:55 PM 73.4 °F 51.8 °F 47% 29.71 in 10.0 mi SSE 9.2 mph - N/A Thunderstorm Overcast
7:15 PM 71.6 °F 48.2 °F 43% 29.73 in 10.0 mi West 8.1 mph - N/A Rain , Thunderstorm Light Thunderstorms and Rain
7:35 PM 69.8 °F 53.6 °F 56% 29.73 in 10.0 mi SW 13.8 mph - 0.01 in Rain , Thunderstorm Light Thunderstorms and Rain
7:55 PM 66.2 °F 55.4 °F 68% 29.72 in 10.0 mi South 6.9 mph - 0.08 in Rain Light Rain
8:15 PM 68.0 °F 55.4 °F 64% 29.72 in 10.0 mi SSW 11.5 mph - N/A Rain , Thunderstorm Light Thunderstorms and Rain
8:35 PM 64.4 °F 55.4 °F 73% 29.72 in 10.0 mi SSE 5.8 mph - 0.01 in   Light Drizzle
8:55 PM 64.4 °F 57.2 °F 77% 29.74 in 10.0 mi Calm Calm - 0.01 in Rain Light Rain
9:15 PM 64.4 °F 57.2 °F 77% 29.73 in 4.0 mi Calm Calm - 0.10 in Rain , Thunderstorm Light Thunderstorms and Rain
9:35 PM 62.6 °F 59.0 °F 88% 29.73 in 10.0 mi SE 4.6 mph - 0.10 in   Overcast
9:55 PM 64.4 °F 57.2 °F 77% 29.72 in 10.0 mi South 9.2 mph - 0.10 in   Overcast
10:15 PM 62.6 °F 57.2 °F 82% 29.72 in 10.0 mi South 8.1 mph - N/A   Overcast
10:35 PM 64.4 °F 57.2 °F 77% 29.72 in 10.0 mi South 9.2 mph - N/A   Overcast
10:55 PM 64.4 °F 57.2 °F 77% 29.72 in 10.0 mi SSW 9.2 mph - N/A   Overcast
11:15 PM 64.4 °F 57.2 °F 77% 29.72 in 10.0 mi SW 8.1 mph - N/A   Overcast
11:35 PM 64.4 °F 57.2 °F 77% 29.73 in 10.0 mi SSW 8.1 mph - N/A   Mostly Cloudy
11:55 PM 62.6 °F 57.2 °F 82% 29.74 in 10.0 mi NNW 8.1 mph - N/A   Scattered Clouds